www.pogodaiklimat.ru

Погода и климат >> Архив погоды >> Дания >> Стенхой


ПОГОДА в Стенхое

  • Прогноз погоды в Стенхое
  • Монитор погоды в Стенхое

АРХИВ ПОГОДЫ в Стенхое

Время (UTC), дата Ветер
(напр.,м/с)
 
Видим.   Явления Облачность Т
(С)
Тd
(С)
f
(%)
Тe
(С)
Тes
(С)
Комфортность P
(гПа)
Po
(гПа)
Тmin
(С)
Tmax
(С)
R
(мм)
R24
(мм)
S
(см)
22 9.09 СВ 3 н/о н/о +14.0 +13.6 97 +13 +13 1012.7 1006.0
23 9.09 СВ 3 н/о н/о +14.1 +13.8 98 +13 +13 1012.0 1005.3
00 10.09 С 3 н/о н/о +14.2 +14.0 99 +13 +13 1011.7 1004.9
01 10.09 С 3 н/о н/о +14.3 +14.1 99 +13 +13 1011.2 1004.4
02 10.09 СВ 3 н/о н/о +14.5 +14.3 99 +13 +13 1010.8 1004.0
03 10.09 С 3 н/о н/о +14.5 +14.4 99 +13 +13 1010.0 1003.3
04 10.09 С 3 н/о н/о +14.6 +14.4 99 +14 +14 1009.5 1002.8
05 10.09 СВ 2 н/о н/о +14.7 +14.6 99 +14 +14 1009.3 1002.6
06 10.09 СВ 2 н/о н/о +14.9 +14.8 99 +14 +14 1009.1 1002.4 +13.9 +15.0
07 10.09 СВ 2 н/о н/о +15.1 +15.0 99 +15 +15 1009.3 1002.6
08 10.09 СВ 2 н/о н/о +15.3 +15.1 99 +15 +15 1009.3 1002.6
09 10.09 В 2 н/о н/о +15.6 +15.3 98 +15 +15 1009.3 1002.6
10 10.09 В 2 н/о н/о +15.7 +15.3 97 +16 +16 1009.2 1002.5
11 10.09 В 2 н/о н/о +15.9 +15.5 97 +16 +16 1009.3 1002.6
12 10.09 н/о н/о +15.8 +15.4 97 1009.2 1002.5
13 10.09 СВ 2 н/о н/о +15.7 +15.3 97 +16 +16 1009.5 1002.8
14 10.09 С 2 н/о н/о +16.0 +15.6 97 +16 +16 1009.5 1002.8
15 10.09 С 3 н/о н/о +16.2 +15.6 96 +16 +16 1009.6 1002.9
16 10.09 С 3 н/о н/о +15.8 +14.9 94 +15 +15 1009.8 1003.1
17 10.09 СЗ 3 н/о н/о +15.8 +15.2 96 +15 +15 1010.0 1003.3
18 10.09 СЗ 2 н/о н/о +15.4 +15.0 97 +15 +15 1010.1 1003.4 +14.8 +16.4
19 10.09 СЗ 3 н/о н/о +15.3 +15.0 98 +15 +15 1010.6 1003.9
20 10.09 СЗ 3 н/о н/о +15.2 +15.0 99 +14 +14 1010.9 1004.2
21 10.09 СЗ 3 н/о н/о +15.0 +14.7 98 +14 +14 1010.8 1004.1
22 10.09 З 4 н/о н/о +14.9 +14.6 98 +14 +14 1011.0 1004.3
23 10.09 З 3 н/о н/о +14.7 +14.4 98 +14 +14 1011.1 1004.3
00 11.09 З 4 н/о н/о +14.8 +14.4 97 +13 +13 1011.3 1004.6
01 11.09 З 7 н/о н/о +14.7 +13.8 94 +13 +13 1011.6 1004.9
02 11.09 З 7 н/о н/о +13.8 +12.1 89 +11 +11 1012.0 1005.2
03 11.09 З 5 н/о н/о +12.8 +11.0 89 +11 +11 1012.3 1005.5
04 11.09 З 4 н/о н/о +11.8 +10.4 91 +10 +10 1012.2 1005.4
05 11.09 ЮЗ 5 н/о н/о +11.1 +10.1 94 +8 +8 1012.5 1005.7
06 11.09 ЮЗ 4 н/о н/о +12.0 +10.1 88 +10 +10 1012.5 1005.7 +11.0 +15.5
07 11.09 ЮЗ 5 н/о н/о +13.5 +11.1 85 +11 +11 1012.3 1005.5
08 11.09 ЮЗ 6 н/о н/о +14.4 +11.5 83 +13 +13 1012.2 1005.5
09 11.09 Ю 7 н/о н/о +15.1 +11.6 80 +13 +13 1011.8 1005.1
10 11.09 Ю 7 н/о н/о +15.3 +12.0 81 +14 +14 1011.3 1004.6
11 11.09 ЮЗ 7 н/о н/о +15.8 +12.1 79 +14 +14 1011.1 1004.4
12 11.09 ЮЗ 7 н/о н/о +14.3 +12.4 88 +12 +12 1011.0 1004.2
13 11.09 Ю 6 н/о н/о +13.3 +12.3 94 +11 +11 1010.4 1003.6
14 11.09 Ю 7 н/о н/о +13.5 +12.8 96 +11 +11 1009.2 1002.5
15 11.09 Ю 8
{13}
н/о н/о +13.9 +13.1 95 +11 +11 1008.2 1001.5
16 11.09 Ю 7 н/о н/о +14.1 +13.5 96 +12 +12 1007.9 1001.2
17 11.09 ЮЗ 6 н/о н/о +14.5 +14.0 97 +12 +12 1008.2 1001.5
18 11.09 ЮЗ 7
{13}
н/о н/о +14.4 +13.4 94 +12 +12 1008.8 1002.1 +12.0 +16.0
19 11.09 З 6 н/о н/о +14.2 +13.2 94 +12 +12 1010.1 1003.3
20 11.09 З 4 н/о н/о +13.5 +12.5 94 +12 +12 1010.9 1004.2
21 11.09 З 5 н/о н/о +13.4 +12.0 91 +11 +11 1011.6 1004.8
22 11.09 ЮЗ 4 н/о н/о +12.8 +12.0 95 +11 +11 1012.2 1005.4
23 11.09 ЮЗ 5 н/о н/о +12.2 +11.1 93 +10 +10 1013.1 1006.2
00 12.09 ЮЗ 5 н/о н/о +12.1 +10.7 91 +10 +10 1013.8 1007.0
01 12.09 ЮЗ 5 н/о н/о +11.6 +10.4 92 +9 +9 1014.3 1007.5
02 12.09 ЮЗ 5 н/о н/о +11.8 +10.9 94 +9 +9 1014.9 1008.0
03 12.09 ЮЗ 4 н/о н/о +11.5 +10.7 95 +9 +9 1015.2 1008.4
04 12.09 ЮЗ 4 н/о н/о +11.6 +11.0 96 +9 +9 1015.5 1008.7
05 12.09 ЮЗ 5 н/о н/о +12.2 +11.4 95 +10 +10 1016.1 1009.3
06 12.09 ЮЗ 5 н/о н/о +12.9 +12.1 95 +11 +11 1016.8 1010.0 +11.2 +14.6
07 12.09 ЮЗ 6 н/о н/о +13.8 +12.5 92 +12 +12 1017.3 1010.5
08 12.09 ЮЗ 7 н/о н/о +15.1 +13.2 88 +13 +13 1017.8 1011.0
09 12.09 ЮЗ 6 н/о н/о +15.9 +12.7 81 +15 +15 1018.4 1011.7
10 12.09 З 6 н/о н/о +15.9 +12.9 82 +15 +15 1018.5 1011.7
11 12.09 ЮЗ 8 н/о н/о +15.9 +11.7 76 +14 +14 1018.6 1011.8
12 12.09 З 8
{12}
н/о н/о +16.0 +11.4 74 +14 +14 1018.9 1012.1
13 12.09 З 7 н/о н/о +17.2 +12.0 71 +16 +16 1018.8 1012.1
14 12.09 ЮЗ 8 н/о н/о +16.4 +11.3 72 +15 +15 1018.6 1011.9
15 12.09 З 8
{13}
н/о н/о +15.2 +11.7 80 +13 +13 1018.9 1012.1
16 12.09 З 7 н/о н/о +15.3 +11.0 76 +13 +13 1018.7 1011.9
17 12.09 З 6 н/о н/о +14.9 +11.0 77 +13 +13 1018.9 1012.1
18 12.09 ЮЗ 6
{13}
н/о н/о +14.0 +11.0 82 +12 +12 1019.0 1012.2 +12.8 +17.7
19 12.09 ЮЗ 5 н/о н/о +12.7 +11.4 92 +10 +10 1019.0 1012.2
20 12.09 ЮЗ 6 н/о н/о +12.6 +11.1 91 +10 +10 1018.7 1011.9
21 12.09 ЮЗ 5 н/о н/о +12.4 +11.2 92 +10 +10 1018.4 1011.6
22 12.09 ЮЗ 5 н/о н/о +12.2 +11.2 94 +10 +10 1018.1 1011.3
23 12.09 ЮЗ 5 н/о н/о +12.2 +11.6 96 +10 +10 1017.7 1010.9
00 13.09 З 4 н/о н/о +12.2 +11.6 96 +10 +10 1018.1 1011.3
01 13.09 ЮЗ 3 н/о н/о +12.4 +11.4 94 +11 +11 1017.8 1010.9
02 13.09 З 5 н/о н/о +12.6 +10.6 88 +10 +10 1017.7 1010.9
03 13.09 З 5 н/о н/о +12.1 +9.8 86 +10 +10 1018.0 1011.2
04 13.09 З 7 н/о н/о +12.2 +8.7 79 +9 +9 1018.5 1011.7
05 13.09 З 6 н/о н/о +12.1 +7.6 74 +9 +9 1019.3 1012.5
06 13.09 З 7 н/о н/о +12.7 +8.0 73 +10 +10 1020.0 1013.2 +11.7 +14.1
07 13.09 З 9 н/о н/о +13.5 +8.2 70 +11 +11 1020.9 1014.1
08 13.09 СЗ 8 н/о н/о +14.3 +7.9 65 +12 +12 1021.7 1014.9
09 13.09 З 11
{15}
н/о н/о +14.6 +6.7 59 +12 +12 1022.8 1016.0
10 13.09 З 11 н/о н/о +15.2 +6.8 57 +13 +13 1023.6 1016.8
11 13.09 З 11 н/о н/о +15.3 +7.8 61 +13 +13 1024.3 1017.5
12 13.09 З 11 н/о н/о +15.7 +8.4 62 +14 +14 1024.9 1018.1
13 13.09 З 12 н/о н/о +15.1 +7.5 60 +13 +13 1025.4 1018.6
14 13.09 З 11 н/о н/о +15.2 +7.8 61 +13 +13 1025.4 1018.6
15 13.09 З 9
{17}
н/о н/о +15.0 +8.6 66 +13 +13 1025.8 1019.0
16 13.09 З 11 н/о н/о +14.4 +8.7 69 +12 +12 1025.9 1019.0
17 13.09 З 12 н/о н/о +13.4 +7.8 69 +10 +10 1026.2 1019.4
18 13.09 З 10
{17}
н/о н/о +12.9 +7.9 72 +10 +10 1027.0 1020.1 +12.7 +15.9
19 13.09 З 9 н/о н/о +12.2 +8.5 78 +9 +9 1027.3 1020.4
20 13.09 З 7 н/о н/о +12.1 +8.1 77 +9 +9 1027.7 1020.8
21 13.09 З 9-14
{15}
н/о н/о +12.3 +8.2 76 +9 +9 1028.3 1021.4
22 13.09 З 7 н/о н/о +12.0 +8.2 78 +9 +9 1028.3 1021.4
23 13.09 З 7 н/о н/о +12.0 +6.6 70 +9 +9 1028.1 1021.2
00 14.09 З 7 н/о н/о +12.1 +7.3 72 +9 +9 1028.6 1021.7
01 14.09 З 7 н/о н/о +11.7 +7.2 74 +9 +9 1028.8 1021.9
02 14.09 З 4 н/о н/о +10.9 +7.8 81 +9 +9 1028.8 1021.8
03 14.09 З 6 н/о н/о +12.0 +7.5 74 +9 +9 1028.4 1021.5
04 14.09 З 6 н/о н/о +11.9 +7.5 74 +9 +9 1028.7 1021.8
05 14.09 З 5 н/о н/о +11.4 +8.8 84 +9 +9 1028.6 1021.7
06 14.09 З 6
{12}
н/о н/о +12.7 +8.6 76 +10 +10 1028.6 1021.7 +10.8 +12.9
07 14.09 З 7 н/о н/о +13.4 +9.0 75 +11 +11 1029.0 1022.1
08 14.09 З 7 н/о н/о +14.0 +9.8 76 +12 +12 1029.0 1022.1
09 14.09 З 9
{12}
н/о н/о +14.9 +9.7 71 +13 +13 1028.5 1021.6
10 14.09 З 9 н/о н/о +14.9 +8.8 67 +13 +13 1028.6 1021.7
11 14.09 З 9 н/о н/о +14.9 +8.9 67 +13 +13 1028.1 1021.2
12 14.09 З 9 н/о н/о +16.6 +9.0 61 +15 +15 1027.5 1020.7
13 14.09 З 10 н/о н/о +17.1 +8.9 58 +16 +16 1026.6 1019.8
14 14.09 З 9 н/о н/о +15.9 +9.5 66 +14 +14 1025.9 1019.1
15 14.09 З 8
{15}
н/о н/о +15.1 +9.5 69 +13 +13 1024.7 1017.9
16 14.09 ЮЗ 7 н/о н/о +14.5 +9.1 70 +13 +13 1023.5 1016.7
17 14.09 ЮЗ 7 н/о н/о +14.1 +9.5 74 +12 +12 1022.4 1015.6
18 14.09 ЮЗ 6
{15}
н/о н/о +13.1 +10.0 81 +11 +11 1022.0 1015.1 +12.6 +17.4
19 14.09 ЮЗ 8 н/о н/о +13.1 +9.8 80 +10 +10 1020.5 1013.7
20 14.09 ЮЗ 8 н/о н/о +12.8 +9.6 81 +10 +10 1018.9 1012.0
21 14.09 ЮЗ 9 н/о н/о +12.9 +9.9 82 +10 +10 1017.1 1010.3
22 14.09 ЮЗ 11 н/о н/о +13.2 +10.2 82 +10 +10 1015.4 1008.6
23 14.09 ЮЗ 11 н/о н/о +13.8 +10.8 82 +11 +11 1013.7 1007.0
00 15.09 ЮЗ 12
{18}
н/о н/о +14.2 +10.9 81 +11 +11 1011.9 1005.1
01 15.09 ЮЗ 11 н/о н/о +14.5 +11.0 80 +12 +12 1011.0 1004.2
02 15.09 З 10 н/о н/о +13.4 +12.0 91 +10 +10 1009.9 1003.2
03 15.09 ЮЗ 8
{19}
н/о н/о +13.3 +12.6 96 +10 +10 1008.3 1001.6
04 15.09 З 9 н/о н/о +13.7 +12.9 95 +11 +11 1007.8 1001.1
05 15.09 З 9 н/о н/о +12.5 +11.5 94 +9 +9 1007.7 1001.0
06 15.09 З 8
{19}
н/о н/о +11.8 +10.4 91 +8 +8 1007.7 1000.9 +11.7 +14.8
07 15.09 З 9 н/о н/о +12.6 +9.0 79 +9 +9 1007.4 1000.6
08 15.09 З 12 н/о н/о +13.9 +8.2 68 +11 +11 1007.3 1000.5
09 15.09 З 13-19
{19}
н/о н/о +13.9 +7.0 63 +11 +11 1007.4 1000.7
10 15.09 З 13 н/о н/о +14.1 +7.0 62 +11 +11 1007.5 1000.8
11 15.09 З 14 н/о н/о +14.8 +6.4 57 +12 +12 1007.2 1000.5
12 15.09 З 16 н/о н/о +14.1 +6.9 62 +11 +11 1007.9 1001.1
13 15.09 З 14 н/о н/о +12.9 +7.8 71 +9 +9 1007.8 1001.0
14 15.09 З 13 н/о н/о +13.1 +7.3 68 +9 +9 1008.0 1001.2
15 15.09 З 12-19
{23}
н/о н/о +13.1 +7.9 71 +10 +10 1007.7 1001.0
16 15.09 З 14 н/о н/о +12.9 +8.1 73 +9 +9 1007.5 1000.8
17 15.09 З 15 н/о н/о +12.7 +7.8 72 +9 +9 1007.2 1000.4
18 15.09 З 12-17
{23}
н/о н/о +12.7 +8.4 75 +9 +9 1007.7 1001.0 +11.8 +14.8
19 15.09 З 13 н/о н/о +12.7 +8.0 73 +9 +9 1008.0 1001.3
20 15.09 З 12 н/о н/о +12.6 +8.1 74 +9 +9 1008.3 1001.6
21 15.09 З 12-17
{22}
н/о н/о +12.2 +7.5 73 +8 +8 1009.0 1002.2
22 15.09 З 12 н/о н/о +12.0 +7.5 74 +8 +8 1009.5 1002.7
23 15.09 З 8-14
{14}
н/о н/о +11.7 +6.8 72 +8 +8 1010.0 1003.2
00 16.09 З 11 н/о н/о +11.5 +6.8 73 +8 +8 1010.0 1003.2
01 16.09 З 9 н/о н/о +11.1 +6.6 74 +7 +7 1010.6 1003.8
02 16.09 З 10 н/о н/о +11.3 +6.8 74 +7 +7 1010.9 1004.1
03 16.09 З 10
{14}
н/о н/о +11.3 +6.3 71 +8 +8 1010.9 1004.1
04 16.09 З 9 н/о н/о +10.7 +6.4 75 +7 +7 1011.1 1004.2
05 16.09 З 7 н/о н/о +10.6 +6.4 75 +7 +7 1011.2 1004.4
06 16.09 З 5
{14}
н/о н/о +11.0 +6.7 75 +8 +8 1011.2 1004.4 +10.5 +12.8
07 16.09 З 9 н/о н/о +11.5 +6.1 69 +8 +8 1011.3 1004.5
08 16.09 З 9 н/о н/о +12.5 +6.3 66 +9 +9 1011.5 1004.7
09 16.09 СЗ 10
{15}
н/о н/о +12.6 +6.3 65 +9 +9 1011.5 1004.7
10 16.09 З 11 н/о н/о +12.9 +6.0 63 +10 +10 1011.8 1005.0
11 16.09 З 12 н/о н/о +13.4 +6.5 63 +10 +10 1011.6 1004.8
12 16.09 З 12 н/о н/о +13.6 +5.7 59 +10 +10 1011.1 1004.4
13 16.09 З 13 н/о н/о +13.5 +5.6 59 +10 +10 1010.7 1004.0
14 16.09 З 13 н/о н/о +13.4 +6.8 64 +10 +10 1010.9 1004.2
15 16.09 З 11-16
{20}
н/о н/о +13.0 +8.1 72 +10 +10 1011.1 1004.3
16 16.09 З 10 н/о н/о +12.5 +7.6 72 +9 +9 1010.9 1004.1
17 16.09 З 9 н/о н/о +11.8 +7.1 73 +8 +8 1010.7 1003.9
18 16.09 З 8
{20}
н/о н/о +11.1 +7.7 80 +8 +8 1010.6 1003.8 +10.9 +13.9
19 16.09 З 8 н/о н/о +11.1 +8.1 82 +8 +8 1010.3 1003.4
20 16.09 З 8 н/о н/о +11.0 +8.1 82 +7 +7 1009.7 1002.9
21 16.09 З 8 н/о н/о +10.6 +7.6 82 +7 +7 1008.8 1002.0

 

Местоположение метеостанции Стенхой (Дания): широта 57.38 долгота 10.33 высота над уровнем моря 55 м.

В архиве по умолчанию представлена погода в Стенхое за последнюю неделю. Архивные данные за месяц целиком и за предыдущие месяцы, начиная с января 2011 года, Вы можете получить, выбрав интересующий диапазон дат из раскрывающегося списка и нажав кнопку "Ввод!".


*Определитесь, кто Вы:
робот инопланетянин человек

Внимание! Время в таблицах - всемирное. Для получения местного времени необходимо прибавить поправку, которая равна 1 ч.

Смотрите также архив погоды в соседних городах и на ближайших метеорологических станциях:

Погода в Тылструпе (Дания) (32 км)
Погода в Ольборге (Дания) (42 км)
Погода в Скагене (Дания) (43 км)
Погода в Винге (Швеция) (82 км)
Погода в Алеструпе (Дания) (86 км)
Погода в Хальде V (Дания) (91 км)
Погода на Маяке Nidingen (Швеция) (95 км)
Погода на Маяке Maseskar (Швеция) (100 км)
Погода в Энхолте (Дания) (103 км)
Погода в Гетеборге (Швеция) (107 км)

Пояснения к столбцам:

Ветер - указаны скорость ветра в м/с - средняя за 10 мин, порывы в срок и между сроками (в фигурных скобках) и направление, откуда дует ветер: С - северный, СВ - северо-восточный, В - восточный, ЮВ - юго-восточный, Ю - южный, ЮЗ - юго-западный, З - западный, СЗ - северо-западный.
Видимость - горизонтальная дальность видимости в метрах или километрах. При видимости от 1 до 10 км при отсутствии осадков обычно наблюдается дымка, при ухудшении видимости до 1 км и менее - туман. В сухую погоду видимость может ухудшаться дымом, пылью или мглою.
Явления - указаны атмосферные явления, наблюдавшиеся в срок или в последний час перед сроком; фигурными скобками обозначены явления, наблюдавшиеся между сроками (за 1-3 часа до срока); квадратными скобками обозначены град или гололедные отложения с указанием их диаметра в мм.
Облачность - указаны через наклонную черту общая и нижняя облачность в баллах и высота нижней границы облаков в метрах; квадратными скобками обозначены формы облаков: Ci - перистые, Cs - перисто-слоистые, Cc - перисто-кучевые, Ac - высококучевые, As - высокослоистые, Sc - слоисто-кучевые, Ns - слоисто-дождевые, Cu - кучевые, Cb - кучево-дождевые. Подробнее классификацию облаков см. в Атласе облаков (PDF).
T - Температура воздуха - температура, измеренная на высоте 2 м над землей.
Td - Температура точки росы - температура, при понижении до которой содержащийся в воздухе водяной пар достигнет насыщения.
f - Относительная влажность воздуха - влажноcть воздуха, измеренная на высоте 2 м над землей.
Te - Эффективная температура - температура, которую ощущает одетый по сезону человек в тени. Характеристика душности погоды. При расчете учитывается влияние влажности воздуха и скорости ветра на теплоощущения человека.
Tes - Эффективная температура на солнце - температура, которую ощущает человек, с поправкой на солнечный нагрев. Характеристика знойности погоды. Зависит от высоты солнца над горизонтом, облачности и скорости ветра. Ночью, в пасмурную погоду, а также при ветре 12 м/с и более поправка равна нулю.
P - Атмосферное давление - приведенное к уровню моря атмосферное давление.
Po - Атмосферное давление - измеренное на уровне метеостанции атмосферное давление.
Tmin - Минимальная температура - минимум температуры воздуха на высоте 2 м над землей.
Tmax - Максимальная температура - максимум температуры воздуха на высоте 2 м над землей.
R - Количество осадков - Количество выпавших осадков за период времени, мм. При наведении курсора мыши на число - период времени, за который выпало указанное количество осадков.
R24 - Количество осадков - Количество выпавших осадков за 24 часа, мм.
S - Снежный покров - Высота снежного покрова, см. При наведении курсора мыши на число - состояние снежного покрова и степень покрытия местности в баллах.